Regional Weather Roundup
Issued by NWS

Home | Current Version | Previous Version | Graphics & Text | Print | Product List | Glossary On
Versions: 1 2 3 4 5 6 7 8 9 10 11 12 13 14 15 16 17 18 19 20 21 22 23 24 25 26 27 28 29 30 31 32 33 34 35 36 37 38 39 40 41 42 43 44 45 46 47 48 49 50
000
ASUS43 KFSD 231510
RWRSD

WEATHER ROUNDUP FOR SOUTH DAKOTA
NATIONAL WEATHER SERVICE SIOUX FALLS SD
1000 AM CDT WED AUG 23 2017

NOTE: "FAIR" INDICATES FEW OR NO CLOUDS BELOW 12,000 FEET WITH NO
SIGNIFICANT WEATHER AND/OR OBSTRUCTIONS TO VISIBILITY.


SDZ001>005-009-010-012>017-231600-
NORTHWEST AND NORTH CENTRAL SOUTH DAKOTA

CITY           SKY/WX    TMP DP  RH WIND       PRES   REMARKS
BUFFALO          N/A     63  50  62 S6        30.01S
FAITH            N/A     66  54  65 SE5       30.04F
MOBRIDGE       SUNNY     72  53  51 SE9       30.03F
$$

SDZ012>016-024>037-041>051-057-063-072>074-231600-
SOUTHWEST AND SOUTH CENTRAL SOUTH DAKOTA

CITY           SKY/WX    TMP DP  RH WIND       PRES   REMARKS
RAPID CTY ARPT SUNNY     70  51  51 N7        30.06S
PIERRE         SUNNY     69  56  62 SE13      30.02F
CUSTER         SUNNY     73  51  46 MISG      30.19S
ELLSWORTH AFB  SUNNY     67  49  54 N7        30.05F
PHILIP         SUNNY     75  54  47 CALM      30.02F
PINE RIDGE     SUNNY     70  54  56 S14       30.08S
SPEARFISH      FAIR      70  52  52 CALM      30.10S
WINNER         FAIR      70  55  59 SW13      30.08S
$$

SDZ004>011-016>023-039-040-231600-
NORTHEAST SOUTH DAKOTA

CITY           SKY/WX    TMP DP  RH WIND       PRES   REMARKS
ABERDEEN       SUNNY     64  53  67 SE6       30.10S
WATERTOWN      SUNNY     65  54  67 S6        30.13S
BROOKINGS      SUNNY     66  54  65 S6        30.15S
SISSETON         N/A     64  54  69 E5        30.10F
$$

SDZ017-020-022-023-036>040-048>070-231600-
SOUTHEAST SOUTH DAKOTA

CITY           SKY/WX    TMP DP  RH WIND       PRES   REMARKS
SIOUX FALLS    MOSUNNY   68  56  65 S3        30.14F
HURON          SUNNY     67  57  70 SE8       30.09F
CHAMBERLAIN    SUNNY     68  60  73 SE10      30.08F
MITCHELL       SUNNY     69  56  62 S10       30.11F
YANKTON        SUNNY     67  58  72 VRB6      30.15F
$$

ABBREVIATIONS USED IN REMARKS
   TC - TEMPERATURE IN CELSIUS
  WCI - WIND CHILL INDEX
   HX - HEAT INDEX
  VSB - VISIBILITY





USA.gov is the U.S. government's official web portal to all federal, state and local government web resources and services.